TJS-4

Last updated on Nov. 14, 2019, 12:02 a.m. UTC

1 44637U 19070A   19317.78727567 -.00000156  00000-0  10000-3 0  9998
2 44637   0.0514 291.0973 0003129 279.6492 208.8112  1.00274905   438
UTC
Height (km)
Latitude
Longitude
Inclination
Orbital Period
UTC large
Height (km)
Speed (km/s)
/
Latitude / Longitude
Inclination (degrees)
Orbital Period (minutes)
Azimuth
Elevation
Range (km)
Doppler Factor
iOS Compass Heading
iOS Angle

Next 30 passes for location: Hong Kong

Rise time Rise Azimuth (degrees) Set time Set Azimuth (degrees) Duration Max altitude (degrees)

No matching passes for this satellites